Flag for Saudi Arabia Weather past 2 weeks in Medina, Saudi Arabia

Now
97 °F

Scattered clouds.


Feels Like: 92 °F
Forecast: 79 / 109 °F
Wind: 9 mph from Southeast

Location: Madinah

Current Time: Jul 7, 2015 at 8:29:09 AM

Latest Report: Jul 7, 2015 at 8:00 AM


Visibility: 2 mi

Pressure: 29.89 "Hg (27.95 "Hg at 606m altitude)

Humidity: 11%

Dew point: 34 °F

Location of MedinaLocation

Historic Weather in Medina — Graph

°F

Medina temperature yesterday

Maximum temperature yesterday: 113 °F (at 4:00 PM)
Minimum temperature yesterday: 91 °F (at 6:00 AM)
Average temperature yesterday: 104 °F

Past Weeks' High & Low Weather Summary

 TemperatureHumidityPressure
High113 °F (Jul 4, 4:00 PM)40% (Jun 23, 10:00 PM)29.98 "Hg (Jun 23, 10:00 PM)
Low77 °F (Jun 27, 6:00 AM)1% (Jun 26, 1:00 PM)29.71 "Hg (Jun 22, 5:00 PM)
Average97 °F10%29.87 "Hg
* Reported Jun 22 7:00 AM — Jul 7 7:00 AM, Medina, Weather by CustomWeather, © 2015

Note: Actual official high and low records may vary slightly from our data, if they occured in-between our weather recording intervals... More about our weather records

Advertising

Medina weather history for previous 24 hours

 ConditionsComfort  
Time TempWeatherWind HumidityBarometerVisibility
7:00 AM
Tue, Jul 7
95 °FScattered clouds.9 mph11%29.86 "Hg3 mi
6:00 AM93 °FScattered clouds.5 mph12%29.86 "Hg3 mi
5:00 AM97 °FClear.6 mph11%29.86 "Hg4 mi
4:00 AM97 °FClear.12 mph12%29.83 "Hg4 mi
3:00 AM97 °FClear.3 mph10%29.83 "Hg10 mi
2:00 AM100 °FClear.7 mph10%29.86 "Hg4 mi
1:00 AM99 °FClear.No wind8%29.86 "Hg10 mi
12:00 AM102 °FClear.5 mph7%29.86 "Hg6 mi
11:00 PM
Mon, Jul 6
102 °FClear.9 mph7%29.89 "Hg6 mi
10:00 PM104 °FClear.16 mph7%29.86 "Hg6 mi
9:00 PM104 °FClear.17 mph8%29.89 "Hg6 mi
8:00 PM106 °FPassing clouds.15 mph5%29.86 "Hg4 mi
7:00 PM108 °FLow level haze.17 mph5%29.83 "Hg3 mi
6:00 PM108 °FLow level haze.21 mph7%29.80 "Hg2 mi
5:00 PM111 °FScattered clouds.12 mph2%29.80 "HgN/A
4:00 PM113 °FScattered clouds.9 mph3%29.80 "HgN/A
3:00 PM111 °FScattered clouds.12 mph2%29.80 "HgN/A
2:00 PM111 °FScattered clouds.7 mph3%29.83 "HgN/A
1:00 PM111 °FScattered clouds.7 mph3%29.86 "HgN/A
12:00 PM109 °FSunny.5 mph3%29.86 "Hg10 mi
11:00 AM108 °FSunny.5 mph4%29.89 "Hg10 mi
10:00 AM106 °FSunny.No wind5%29.89 "Hg10 mi
9:00 AM102 °FSunny.No wind6%29.89 "Hg10 mi
8:00 AM99 °FSunny.No wind7%29.89 "Hg6 mi
Weather by CustomWeather, © 2015

See weather overviewHow to use our weather pages